Weather History for KOLF - January, 2013

Change the Weather History Date:

Wednesday, January 2, 2013

  Actual Average Record
Temperature  
Mean Temperature 19 °F -  
Max Temperature 28 °F 24 °F 44 °F (2012)
Min Temperature 9 °F 0 °F -27 °F (2005)
Degree Days  
Heating Degree Days 46    
Cooling Degree Days 0    
Moisture  
Dew Point 16 °F    
Average Humidity 79    
Maximum Humidity 87    
Minimum Humidity 71    
Precipitation  
Precipitation T in 0.02 in 0.15 in (2004)
Month to date precipitation T 0.03  
Year to date precipitation T 0.03  
Sea Level Pressure  
Sea Level Pressure 30.25 in    
Wind  
Wind Speed 13 mph (WNW)    
Max Wind Speed 21 mph    
Max Gust Speed 26 mph    
Visibility 8 miles    
Events Snow    
T = Trace of Precipitation, MM = Missing Value Source: NWS Daily Summary

Daily Weather History Graph

Daily Weather History Graph

Search for Another Location

Airport or City:

Trip Planner

Search our weather history database for the weather conditions in past years. The results will help you decide how hot, cold, wet, or windy it might be!

Date:

Astronomy

Jan. 02, 2013 Rise Set
Actual Time 7:52 AM MST 4:20 PM MST
Civil Twilight 7:16 AM MST 4:57 PM MST
Nautical Twilight 6:36 AM MST 5:36 PM MST
Astronomical Twilight 5:59 AM MST 6:14 PM MST
Moon 10:24 PM MST (1/2) 10:10 AM MST (1/2)
Length of Visible Light 9h 40m
Length of Day
8h 28m
Waning Gibbous, 74% of the Moon is Illuminated
Jan 2
Waning Gibbous
Jan 4
Last Quarter
Jan 11
New
Jan 18
First Quarter
Jan 26
Full

Hourly Weather History & Observations

Time (MST) Temp. Windchill Dew Point Humidity Pressure Visibility Wind Dir Wind Speed Gust Speed Precip Events Conditions
12:53 AM 26.1 °F 15.0 °F 19.9 °F 78% 30.16 in 10.0 mi West 12.7 mph - N/A   Overcast
1:53 AM 24.1 °F 12.0 °F 17.1 °F 75% 30.17 in 10.0 mi West 13.8 mph - N/A   Overcast
2:53 AM 23.0 °F 10.6 °F 17.1 °F 78% 30.17 in 10.0 mi West 13.8 mph - N/A   Overcast
3:53 AM 19.9 °F 5.7 °F 14.0 °F 78% 30.18 in 10.0 mi West 16.1 mph - N/A   Clear
4:53 AM 15.1 °F 3.3 °F 10.0 °F 80% 30.18 in 10.0 mi WSW 9.2 mph - N/A   Mostly Cloudy
5:48 AM 15.8 °F 5.1 °F 10.4 °F 79% 30.09 in 10.0 mi WSW 8.1 mph - N/A   Mostly Cloudy
5:53 AM 16.0 °F 4.4 °F 10.0 °F 77% 30.20 in 10.0 mi WSW 9.2 mph - N/A   Mostly Cloudy
6:53 AM 21.0 °F 8.1 °F 14.0 °F 74% 30.20 in 10.0 mi West 13.8 mph - N/A   Overcast
7:53 AM 21.9 °F 7.8 °F 15.1 °F 75% 30.21 in 10.0 mi West 17.3 mph - N/A   Overcast
8:41 AM 21.2 °F 7.3 °F 15.8 °F 80% 30.13 in 4.0 mi West 16.1 mph - 0.00 in Snow Light Snow
8:53 AM 21.9 °F 8.2 °F 16.0 °F 78% 30.23 in 4.0 mi West 16.1 mph - 0.00 in Snow Light Snow
9:30 AM 21.2 °F 6.0 °F 17.6 °F 86% 30.15 in 3.0 mi WNW 19.6 mph - 0.00 in Snow Light Snow
9:33 AM 21.2 °F 5.6 °F 17.6 °F 86% 30.16 in 1.8 mi WNW 20.7 mph - 0.00 in Snow Light Snow
9:37 AM 21.2 °F 5.6 °F 17.6 °F 86% 30.16 in 0.8 mi WNW 20.7 mph - 0.00 in Snow Light Snow
9:53 AM 23.0 °F 8.0 °F 18.0 °F 81% 30.25 in 0.8 mi West 20.7 mph - 0.00 in Snow Light Snow
9:56 AM 23.0 °F 8.0 °F 17.6 °F 80% 30.16 in 1.0 mi West 20.7 mph - 0.00 in Snow Light Snow
10:12 AM 23.0 °F 9.6 °F 17.6 °F 80% 30.17 in 1.5 mi WNW 16.1 mph 26.5 mph 0.00 in Snow Light Snow
10:20 AM 23.0 °F 9.2 °F 17.6 °F 80% 30.17 in 3.0 mi West 17.3 mph - 0.00 in Snow Light Snow
10:49 AM 26.6 °F 13.8 °F 19.4 °F 74% 30.18 in 9.0 mi WNW 17.3 mph - 0.00 in   Overcast
10:53 AM 26.1 °F 13.6 °F 19.9 °F 78% 30.27 in 9.0 mi WNW 16.1 mph - 0.00 in   Overcast
11:53 AM 27.0 °F 15.6 °F 19.9 °F 75% 30.30 in 10.0 mi NW 13.8 mph - N/A   Overcast
12:08 PM 24.8 °F 13.4 °F 19.4 °F 80% 30.21 in 1.8 mi NNW 12.7 mph - 0.00 in Snow Light Snow
12:14 PM 24.8 °F 15.3 °F 19.4 °F 80% 30.21 in 3.0 mi NNW 9.2 mph - 0.00 in Snow Light Snow
12:53 PM 25.0 °F 14.8 °F 18.0 °F 75% 30.31 in 10.0 mi North 10.4 mph - 0.00 in   Overcast
1:53 PM 24.1 °F 16.0 °F 18.0 °F 77% 30.33 in 10.0 mi North 6.9 mph - N/A   Overcast
2:49 PM 24.8 °F 16.1 °F 17.6 °F 74% 30.26 in 10.0 mi NNW 8.1 mph - N/A   Overcast
2:53 PM 24.1 °F 12.0 °F 16.0 °F 71% 30.36 in 10.0 mi North 13.8 mph - N/A   Overcast
3:11 PM 23.0 °F 11.7 °F 15.8 °F 74% 30.26 in 10.0 mi NNW 11.5 mph - N/A   Overcast
3:53 PM 23.0 °F 13.9 °F 16.0 °F 74% 30.38 in 10.0 mi NNW 8.1 mph - N/A   Overcast
4:53 PM 21.9 °F - 17.1 °F 82% 30.39 in 10.0 mi Calm Calm - N/A   Overcast
5:53 PM 23.0 °F 13.1 °F 15.1 °F 72% 30.40 in 10.0 mi NNW 9.2 mph - N/A   Overcast
6:53 PM 21.2 °F 16.4 °F 15.8 °F 80% 30.30 in 10.0 mi West 3.5 mph - N/A   Overcast
7:53 PM 23.0 °F 17.0 °F 17.1 °F 78% 30.40 in 10.0 mi West 4.6 mph - N/A   Overcast
8:53 PM 21.9 °F 15.7 °F 16.0 °F 78% 30.42 in 10.0 mi West 4.6 mph - N/A   Overcast
9:53 PM 18.0 °F 8.7 °F 12.9 °F 81% 30.40 in 10.0 mi West 6.9 mph - N/A   Scattered Clouds
10:53 PM 14.0 °F -0.2 °F 10.0 °F 84% 30.39 in 10.0 mi West 12.7 mph - N/A   Clear
11:53 PM 10.0 °F 3.6 °F 7.0 °F 87% 30.40 in 10.0 mi West 3.5 mph - N/A   Clear